N1IJV-10 Weather Reports


time (UTC)temp
F
wind
direction
speed
knots
gust
knots
rain 1hr
in
rain 24hr
in
rain mn
in
humidity
%
barometer
mb
20260505170220 57 22 2.6 4.3 0.00 0.08 0.08 45 1008.5
20260505165716 57 268 3.5 4.3 0.00 0.08 0.08 45 1008.3
20260505165212 58 195 0.9 1.7 0.00 0.08 0.08 43 1008.3
20260505164707 57 327 2.6 4.3 0.00 0.08 0.08 43 1008.2
20260505164205 57 169 1.7 4.3 0.00 0.08 0.08 42 1008.2
20260505163703 57 20 2.6 4.3 0.00 0.08 0.08 42 1008.3
20260505163201 57 76 1.7 6.1 0.00 0.08 0.08 44 1008.4
20260505162658 56 3 0.9 4.3 0.00 0.08 0.08 44 1008.6
20260505162155 57 26 1.7 5.2 0.00 0.08 0.08 47 1008.5
20260505161652 55 26 2.6 4.3 0.00 0.08 0.08 47 1008.6
20260505161149 55 82 0.9 2.6 0.00 0.08 0.08 53 1008.5
20260505160647 55 111 0.9 2.6 0.00 0.08 0.08 51 1008.5
20260505160144 54 69 0.9 1.7 0.00 0.08 0.08 53 1008.4
20260505153124 54 26 2.6 4.3 0.00 0.08 0.08 55 1008.1
20260505152620 54 265 1.7 2.6 0.00 0.08 0.08 55 1008.0
20260505152116 53 340 1.7 4.3 0.00 0.08 0.08 62 1008.1
20260505151611 53 266 1.7 2.6 0.00 0.08 0.08 54 1008.1
20260505151109 53 274 2.6 2.6 0.00 0.08 0.08 57 1008.2
20260505150605 52 273 1.7 2.6 0.00 0.08 0.08 57 1008.0
20260505140531 48 48 0.9 1.7 0.00 0.08 0.08 82 1008.6
20260505124944 44 90 0.0 0.0 0.12 0.08 0.08 90 1008.1
20260505124441 45 80 0.0 0.0 0.07 0.07 0.07 89 1008.5
20260505123937 45 97 0.0 0.0 0.05 0.06 0.06 89 1008.3
20260505123434 45 86 0.9 0.9 0.12 0.06 0.06 88 1008.9
20260505122929 45 131 0.9 0.9 0.07 0.05 0.05 87 1008.8
20260505122427 45 93 0.0 0.0 0.07 0.04 0.04 86 1008.4
20260505121924 46 82 0.0 0.0 0.00 0.03 0.03 84 1008.4
20260505121421 46 84 0.0 0.0 0.05 0.03 0.03 81 1008.3
20260505120916 46 73 0.0 0.9 0.05 0.03 0.03 82 1008.3
20260505120413 47 84 0.0 0.0 0.07 0.02 0.02 81 1008.7
20260505115912 47 51 0.9 1.7 0.07 0.02 0.02 80 1008.8
20260505115409 48 69 0.9 1.7 0.05 0.01 0.01 77 1008.6
20260505114907 48 95 0.9 1.7 0.05 0.01 0.01 74 1008.5
20260505114403 48 29 0.0 0.0 0.00 0.00 0.00 73 1008.1
20260505113859 49 79 0.0 0.0 0.00 0.00 0.00 69 1007.7
20260505113356 49 93 0.0 0.0 0.00 0.00 0.00 67 1007.4
20260505112852 49 80 0.9 0.9 0.00 0.00 0.00 66 1007.4
20260505112350 50 54 0.9 1.7 0.00 0.00 0.00 63 1007.6
20260505111845 50 74 0.9 1.7 0.00 0.00 0.00 63 1006.8
20260505111341 50 76 0.0 0.9 0.00 0.00 0.00 63 1006.4
20260505110837 50 95 0.0 0.9 0.00 0.00 0.00 64 1006.0
20260505110334 50 87 0.0 0.9 0.00 0.00 0.00 62 1006.1
20260505101809 51 11 0.0 0.0 0.00 0.00 0.00 62 1005.4
20260505101305 51 87 0.0 0.0 0.00 0.00 0.00 60 1005.1
20260505100801 51 89 0.0 0.9 0.00 0.00 0.00 62 1005.3
20260505100258 51 41 0.9 0.9 0.00 0.00 0.00 60 1005.4
20260505095753 52 88 0.0 0.0 0.00 0.00 0.00 58 1005.5
20260505095251 52 80 0.9 2.6 0.00 0.00 0.00 57 1005.4
20260505094746 52 81 0.0 0.9 0.00 0.00 0.00 60 1005.5
20260505094244 52 77 0.9 1.7 0.00 0.00 0.00 57 1005.6
20260505093739 52 64 1.7 2.6 0.00 0.00 0.00 56 1005.8
20260505093237 53 74 0.0 0.9 0.00 0.00 0.00 56 1005.6
20260505092734 53 81 0.0 4.3 0.00 0.00 0.00 54 1005.5
20260505092233 53 85 0.0 1.7 0.00 0.00 0.00 57 1005.7
20260505091729 53 78 0.9 2.6 0.00 0.00 0.00 58 1005.8
20260505091228 53 33 0.9 1.7 0.00 0.00 0.00 60 1005.6
20260505090725 54 97 0.0 1.7 0.00 0.00 0.00 60 1005.4
20260505090223 54 5 3.5 4.3 0.00 0.00 0.00 60 1005.1
20260505085720 54 58 0.9 1.7 0.00 0.00 0.00 59 1004.9
20260505085218 54 259 1.7 1.7 0.00 0.00 0.00 58 1004.9
20260505084715 55 348 1.7 2.6 0.00 0.00 0.00 57 1004.6
20260505084214 55 353 2.6 4.3 0.00 0.00 0.00 56 1004.5
20260505083711 55 43 0.0 2.6 0.00 0.00 0.00 57 1004.4
20260505083208 55 58 1.7 2.6 0.00 0.00 0.00 56 1004.1
20260505082703 55 54 1.7 2.6 0.00 0.00 0.00 56 1004.2
20260505082201 55 63 0.9 1.7 0.00 0.00 0.00 55 1003.7
20260505081656 55 23 1.7 2.6 0.00 0.00 0.00 55 1003.5
20260505081154 55 51 1.7 1.7 0.00 0.00 0.00 56 1003.5
20260505080651 55 28 0.9 1.7 0.00 0.00 0.00 54 1003.3
20260505080147 55 14 1.7 2.6 0.00 0.00 0.00 54 1003.3
20260505075643 55 352 1.7 1.7 0.00 0.00 0.00 55 1003.2
20260505075140 55 17 0.9 2.6 0.00 0.00 0.00 56 1003.0
20260505074637 55 76 0.9 1.7 0.00 0.00 0.00 56 1003.0
20260505074134 56 18 1.7 2.6 0.00 0.00 0.00 55 1003.0
20260505073631 56 71 1.7 1.7 0.00 0.00 0.00 55 1002.8
20260505073129 56 78 0.9 2.6 0.00 0.00 0.00 56 1002.7
20260505072624 56 19 2.6 2.6 0.00 0.00 0.00 56 1002.8
20260505072122 56 61 1.7 1.7 0.00 0.00 0.00 57 1002.8
20260505071617 56 40 2.6 2.6 0.00 0.00 0.00 57 1002.7
20260505071115 56 76 0.9 2.6 0.00 0.00 0.00 57 1002.6
20260505070612 56 86 0.0 1.7 0.00 0.00 0.00 56 1002.6
20260505070108 56 66 1.7 1.7 0.00 0.00 0.00 58 1002.5
20260505065604 55 83 0.9 0.9 0.00 0.00 0.00 58 1002.3
20260505065101 56 85 0.0 0.0 0.00 0.00 0.00 60 1002.3
20260505064558 56 69 0.9 0.9 0.00 0.00 0.00 58 1002.3
20260505064057 57 77 0.9 0.9 0.00 0.00 0.00 57 1002.5
20260505063553 57 84 0.9 0.9 0.00 0.00 0.00 55 1002.2
20260505063049 57 179 1.7 1.7 0.00 0.00 0.00 55 1002.3
20260505062546 58 51 1.7 2.6 0.00 0.00 0.00 52 1002.4
20260505062043 58 44 1.7 2.6 0.00 0.00 0.00 52 1002.2
20260505061540 58 4 1.7 4.3 0.00 0.00 0.00 52 1002.3
20260505061038 58 20 0.9 2.6 0.00 0.00 0.00 54 1002.1
20260505060536 58 77 1.7 1.7 0.00 0.00 0.00 55 1002.0
20260505060032 58 89 0.9 1.7 0.00 0.00 0.00 55 1002.3
20260505055527 58 44 0.9 4.3 0.00 0.00 0.00 54 1002.1
20260505055024 58 78 0.9 1.7 0.00 0.00 0.00 58 1002.0
20260505054522 58 132 0.9 4.3 0.00 0.00 0.00 55 1002.0
20260505054020 58 270 0.9 1.7 0.00 0.00 0.00 56 1002.3
20260505053517 58 312 0.9 2.6 0.00 0.00 0.00 57 1002.3
20260505053013 57 315 1.7 2.6 0.00 0.00 0.00 59 1002.4
20260505052510 56 2 0.9 1.7 0.00 0.00 0.00 64 1002.0
20260505052008 56 75 0.0 0.9 0.00 0.00 0.00 69 1001.9
20260505051504 55 84 0.0 0.9 0.00 0.00 0.00 74 1001.8
20260505051003 55 124 0.0 0.0 0.00 0.00 0.00 75 1001.7
20260505050500 56 125 0.0 0.0 0.00 0.00 0.00 75 1001.7
20260505041428 60 348 0.0 0.9 0.00 0.03 0.03 76 1000.9
20260505040925 60 85 0.9 1.7 0.00 0.03 0.03 75 1000.8
20260505040423 61 105 0.9 1.7 0.00 0.03 0.03 74 1000.9
20260505035919 61 114 0.9 1.7 0.00 0.03 0.03 74 1001.1
20260505035415 61 121 0.9 0.9 0.00 0.03 0.03 73 1001.2
20260505034913 62 154 0.0 0.9 0.00 0.03 0.03 73 1000.8
20260505034409 62 239 1.7 1.7 0.00 0.03 0.03 74 1001.2
20260505033906 62 227 1.7 2.6 0.00 0.03 0.03 75 1001.2
20260505033403 62 235 1.7 1.7 0.00 0.03 0.03 75 1000.8
20260505032901 62 188 1.7 1.7 0.00 0.03 0.03 74 1001.1
20260505032357 62 163 2.6 2.6 0.00 0.03 0.03 74 1000.8
20260505031854 62 123 0.9 4.3 0.00 0.03 0.03 74 1000.5
20260505031351 62 155 0.9 2.6 0.00 0.03 0.03 74 1000.4
20260505030848 62 155 0.9 1.7 0.00 0.03 0.03 74 1000.6
20260505030344 62 138 0.9 1.7 0.00 0.03 0.03 75 1000.3
20260505025840 62 68 0.9 1.7 0.00 0.03 0.03 75 1000.3
20260505025338 62 101 0.9 1.7 0.00 0.03 0.03 74 1000.3
20260505024836 62 356 1.7 2.6 0.00 0.03 0.03 74 1000.7
20260505024333 62 300 2.6 4.3 0.00 0.03 0.03 75 1000.7
20260505023830 62 88 0.9 2.6 0.00 0.03 0.03 76 1000.5
20260505023327 62 131 0.0 0.0 0.00 0.03 0.03 76 1000.5
20260505022824 62 287 2.6 2.6 0.00 0.03 0.03 74 1000.0
20260505022321 63 348 1.7 2.6 0.00 0.03 0.03 74 1000.1
20260505021819 63 154 0.9 2.6 0.00 0.03 0.03 72 999.7
20260505021315 63 121 0.9 2.6 0.00 0.03 0.03 73 999.6
20260505020811 63 236 0.9 2.6 0.00 0.03 0.03 72 999.5
20260505020307 63 141 0.9 1.7 0.00 0.03 0.03 73 999.4
20260505015804 63 149 1.7 1.7 0.00 0.03 0.03 73 999.1
20260505015301 63 119 0.9 1.7 0.00 0.03 0.03 73 999.1
20260505014758 64 264 1.7 2.6 0.00 0.03 0.03 73 999.0
20260505014255 64 268 1.7 1.7 0.00 0.03 0.03 72 998.9
20260505013751 64 95 0.9 2.6 0.00 0.03 0.03 72 998.7
20260505013249 64 191 2.6 4.3 0.00 0.03 0.03 71 998.6
20260505012747 64 303 0.9 5.2 0.00 0.03 0.03 72 998.8
20260505012244 64 137 0.9 4.3 0.00 0.03 0.03 73 998.8
20260505011739 64 72 0.9 5.2 0.00 0.03 0.03 74 999.0
20260505011237 64 242 2.6 7.0 0.00 0.03 0.03 74 998.6
20260505010732 64 255 2.6 6.1 0.00 0.03 0.03 76 998.7
20260505010229 64 257 2.6 2.6 0.00 0.03 0.03 77 998.4
20260505005726 64 203 1.7 5.2 0.00 0.03 0.03 76 998.6
20260505005223 64 169 3.5 5.2 0.00 0.03 0.03 76 998.3
20260505004720 65 250 3.5 5.2 0.00 0.03 0.03 76 998.6
20260505004216 65 171 3.5 5.2 0.00 0.03 0.03 77 998.6
20260505003713 65 154 2.6 2.6 0.00 0.03 0.03 77 998.8
20260505003211 66 149 1.7 4.3 0.00 0.03 0.03 75 998.6
20260505002707 66 130 0.0 0.9 0.00 0.03 0.03 73 997.6
20260505002205 67 215 0.9 1.7 0.00 0.03 0.03 71 997.5
20260505001702 67 129 0.9 1.7 0.00 0.03 0.03 69 997.4
20260505001159 67 188 2.6 4.3 0.00 0.03 0.03 68 997.8
20260505000656 67 268 1.7 4.3 0.00 0.03 0.03 69 998.1
20260505000154 66 175 1.7 1.7 0.00 0.03 0.03 73 998.6
20260504235650 65 104 1.7 2.6 0.00 0.03 0.03 76 998.4
20260504235147 63 103 0.9 0.9 0.00 0.03 0.03 84 998.2
20260504234644 62 104 0.0 0.0 0.00 0.03 0.03 87 997.8
20260504234142 61 98 0.0 0.0 0.00 0.03 0.03 87 997.6
20260504233637 62 108 0.0 0.0 0.00 0.03 0.03 87 997.8
20260504233133 62 90 0.0 0.0 0.00 0.03 0.03 84 998.0
20260504232631 62 130 0.0 0.0 0.07 0.03 0.03 80 998.2
20260504232128 64 92 0.0 0.9 0.12 0.02 0.02 79 997.9
20260504231624 65 93 0.9 2.6 0.07 0.01 0.01 71 998.1
20260504231115 68 213 2.6 6.1 0.00 0.00 0.00 62 998.2
20260504230611 71 331 5.2 6.1 0.00 0.00 0.00 62 997.9
20260504230110 72 44 0.9 1.7 0.00 0.00 0.00 62 997.1
20260504225608 72 86 0.9 1.7 0.00 0.00 0.00 58 997.1
20260504225104 73 108 0.0 1.7 0.00 0.00 0.00 57 997.1
20260504224601 73 99 0.0 1.7 0.00 0.00 0.00 57 997.4
20260504224058 73 133 0.0 2.6 0.00 0.00 0.00 55 997.3
20260504223555 74 220 0.9 2.6 0.00 0.00 0.00 53 997.4
20260504223050 75 153 0.9 4.3 0.00 0.00 0.00 55 998.1
20260504222548 74 212 1.7 4.3 0.00 0.00 0.00 55 997.9
20260504222045 73 169 3.5 7.0 0.00 0.00 0.00 56 998.0
20260504221542 75 294 4.3 7.8 0.00 0.00 0.00 55 998.1
20260504221039 74 317 4.3 7.8 0.00 0.00 0.00 52 997.8
20260504220535 74 230 3.5 7.0 0.00 0.00 0.00 52 997.9
20260504220032 74 219 3.5 6.1 0.00 0.00 0.00 48 997.9
20260504215529 77 69 3.5 8.7 0.00 0.00 0.00 44 997.8
20260504215026 77 276 4.3 7.0 0.00 0.00 0.00 42 997.6
20260504214522 78 60 4.3 8.7 0.00 0.00 0.00 42 997.5
20260504214019 78 206 4.3 7.0 0.00 0.00 0.00 40 997.7
20260504213515 79 217 3.5 6.1 0.00 0.00 0.00 40 997.9
20260504213012 80 186 2.6 9.6 0.00 0.00 0.00 40 998.0
20260504212508 80 190 2.6 2.6 0.00 0.00 0.00 39 998.1
20260504212006 79 221 3.5 5.2 0.00 0.00 0.00 38 998.1
20260504211503 81 238 2.6 7.0 0.00 0.00 0.00 39 998.1
20260504211000 81 237 2.6 7.0 0.00 0.00 0.00 37 997.9
20260504210456 80 202 2.6 6.1 0.00 0.00 0.00 41 998.5
20260504205953 78 258 1.7 7.8 0.00 0.00 0.00 39 998.2
20260504205451 79 90 0.9 7.8 0.00 0.00 0.00 39 998.3
20260504204949 80 186 4.3 7.8 0.00 0.00 0.00 37 998.2
20260504204447 79 298 6.1 12.2 0.00 0.00 0.00 39 998.4
20260504203945 80 251 1.7 4.3 0.00 0.00 0.00 40 998.4
20260504203443 81 181 2.6 12.2 0.00 0.00 0.00 38 998.5
20260504202939 81 220 4.3 7.0 0.00 0.00 0.00 37 998.3
20260504202436 82 205 4.3 9.6 0.00 0.00 0.00 36 998.4
20260504201932 81 42 2.6 8.7 0.00 0.00 0.00 38 998.4
20260504201430 80 216 0.9 1.7 0.00 0.00 0.00 41 998.3
20260504200927 81 116 2.6 6.1 0.00 0.00 0.00 38 998.5
20260504200424 81 118 5.2 7.8 0.00 0.00 0.00 37 998.6
20260504195921 82 204 2.6 7.8 0.00 0.00 0.00 38 998.5
20260504195416 82 113 0.9 11.3 0.00 0.00 0.00 40 998.8
20260504194913 80 135 2.6 6.1 0.00 0.00 0.00 40 998.7
20260504194409 80 205 0.9 5.2 0.00 0.00 0.00 42 999.0
20260504193905 81 105 2.6 8.7 0.00 0.00 0.00 39 999.0
20260504193403 80 227 0.9 5.2 0.00 0.00 0.00 44 999.1
20260504192901 78 119 1.7 6.1 0.00 0.00 0.00 41 999.3
20260504192358 78 225 2.6 4.3 0.00 0.00 0.00 43 999.2
20260504191857 78 340 3.5 7.8 0.00 0.00 0.00 42 999.3
20260504191354 81 209 6.1 7.8 0.00 0.00 0.00 38 999.0
20260504190849 80 267 2.6 6.1 0.00 0.00 0.00 38 999.2
20260504190346 81 357 1.7 6.1 0.00 0.00 0.00 38 999.2
20260504185843 80 74 1.7 4.3 0.00 0.00 0.00 37 999.0
20260504185339 80 197 4.3 9.6 0.00 0.00 0.00 38 999.3
20260504184835 79 208 1.7 8.7 0.00 0.00 0.00 39 999.3
20260504184332 80 229 8.7 12.2 0.00 0.00 0.00 37 999.4
20260504183827 79 165 2.6 7.8 0.00 0.00 0.00 38 999.2
20260504183325 79 125 1.7 2.6 0.00 0.00 0.00 36 999.5
20260504182822 79 156 0.9 7.8 0.00 0.00 0.00 37 999.5
20260504182320 79 212 3.5 7.0 0.00 0.00 0.00 33 999.5
20260504181817 79 219 4.3 6.1 0.00 0.00 0.00 34 999.5
20260504181314 79 338 3.5 6.1 0.00 0.00 0.00 36 999.5
20260504180813 78 263 1.7 4.3 0.00 0.00 0.00 42 999.6
20260504180311 77 239 3.5 6.1 0.00 0.00 0.00 39 999.7
20260504175809 77 239 3.5 5.2 0.00 0.00 0.00 39 999.9
20260504175305 77 235 2.6 7.0 0.00 0.00 0.00 38 999.8
20260504174804 77 124 2.6 2.6 0.00 0.00 0.00 41 1000.0
20260504174301 77 153 3.5 5.2 0.00 0.00 0.00 40 999.8
20260504173757 77 166 1.7 7.0 0.00 0.00 0.00 38 1000.0
20260504173254 77 155 0.9 5.2 0.00 0.00 0.00 41 1000.1
20260504172751 77 236 6.1 8.7 0.00 0.00 0.00 38 1000.4
20260504172247 77 166 3.5 6.1 0.00 0.00 0.00 41 1000.2
20260504171743 76 263 3.5 7.0 0.00 0.00 0.00 41 1000.2
20260504171241 76 3 3.5 8.7 0.00 0.00 0.00 41 1000.3
20260504170738 75 42 0.9 6.1 0.00 0.00 0.00 42 1000.4